Location: Seven Kings
(51.5667°N, 0.1000°E)
Time: 01:57:52
(UTC+00:00)

Cosmos 2151 - Pass Details

Date: 29 October 2020
Orbit: 580 x 602 km, 82.5° (Epoch: 27 November)

Event Time Altitude Azimuth Distance (km) Brightness Sun altitude
Rises 19:07:56 0° 348° (NNW) 2,823 6.7 -23.9°
Reaches altitude 10° 19:10:09 10° 347° (NNW) 1,915 5.8 -24.2°
Enters shadow 19:14:04 72° 309° (NW) 617 3.0 -24.8°
